ATLAS CENTAUR 2 DEB, 739

Orbit data source: Space-Track

ATLAS CENTAUR 2 DEB, 739 is space debris in LEO originally from a launch on Wed, 27 Nov 1963 UTC launched from the Air Force Eastern Test Range (AFETR). Debris objects in space refer to the collection of defunct objects orbiting the Earth. Examples of debris include non-operational satellites, rocket bodies, and fragments generated from explosions, collisions, or faulty payload assembly.

Loading next visibility...
Identifier
739, 1963-047H
Orbit
LEO
Country
Flag of USUS
Related business
Manufacturer
GD/Convair
Mission
Spacecraft
Bus & Motor
CENTAUR PART, Unknown motor
Mass
Unknown
Launch date (UTC)
1963-11-27 (62 years ago)
Launch vehicle
Unknown
Launch site
Air Force Eastern Test Range (AFETR)
Object type
Payload
Rocket body
Debris
Shape & HBR
Unknown shape, 0.3 m
Radar Cross Section
Medium (>0.1 m² and <1 m²)

Expand to show TLE details & history
Last TLE update: 1 day ago

TLE from 1 day ago
0 ATLAS CENTAUR 2 DEB
1 00739U 63047H   25317.97848271  .00001358  00000-0  21553-3 0  9999
2 00739  30.4209 166.1154 0636477  25.3452 337.7004 13.84975728111525
Epoch: 2025-11-13T23:29Z
TLE epoch observation values (Epoch: 2025-11-13T23:29:00.906Z)
Latitude
-0°
Longitude
120.53304°
Altitude
518.281 km
Speed
7.824 km/s
True Right ascension
11h 04m 27s
True Declination
0° 00' 00"
Sunlit
Object was in daylight at epoch
Visualization orbit readout
Latitude
Unknown
Longitude
Unknown
Altitude
Unknown
Speed
Unknown
Apparent Right ascension
Unknown
Apparent Declination
Unknown
Sunlit
N/A
Visualization observer readout
Local Sidereal Time
20:15:17
Azimuth
Unknown
Elevation
Unknown
Doppler factor
Unknown
Orbital elements
Apogee altitude
1,416.441 km
Perigee altitude
483.6 km
Semi-major axis
7,328.157 km
Eccentricity
0.06365
Inclination
30.4209°
RAAN
166.1154°
Arg. of periapsis
25.3452°
True anomaly
334.71512°
Mean anomaly
337.7004°
Eccentric anomaly
336.23055°
Mean motion
3.4598 °/min
Orbital period
104.05 mins
BSTAR
0.00021553
Loading maneuver chart data...
Computing Atmospheric mass density...

Documentation

Showing up to 5 results
|